Change the Weather History Date:

Sunday, November 23, 2014

  Actual Average Record
Temperature  
Mean Temperature 42 °F -  
Max Temperature 51 °F 36 °F 59 °F (2001)
Min Temperature 32 °F 20 °F -5 °F (1950)
Degree Days  
Heating Degree Days 24    
Moisture  
Dew Point 43 °F    
Average Humidity 92    
Maximum Humidity 100    
Minimum Humidity 81    
Precipitation  
Precipitation 0.00 in - - ()
Sea Level Pressure  
Sea Level Pressure 29.42 in    
Wind  
Wind Speed 8 mph (SW)    
Max Wind Speed 17 mph    
Max Gust Speed 23 mph    
Visibility 6 miles    
Events Fog , Rain , Snow    
Averages and records for this station are not official NWS values.
T = Trace of Precipitation, MM = Missing Value Source: NWS Daily Summary

Daily Weather History Graph

Daily Weather History Graph

Search for Another Location

Airport or City:

Trip Planner

Search our weather history database for the weather conditions in past years. The results will help you decide how hot, cold, wet, or windy it might be!

Date:

Astronomy

Nov. 23, 2014 Rise Set
Actual Time 7:19 AM CST 4:39 PM CST
Civil Twilight 6:47 AM CST 5:11 PM CST
Nautical Twilight 6:11 AM CST 5:47 PM CST
Astronomical Twilight 5:37 AM CST 6:21 PM CST
Moon 8:15 AM CST (11/23) 6:03 PM CST (11/23)
Length of Visible Light 10h 24m
Length of Day
9h 20m
New Moon, 2% of the Moon is Illuminated
Nov 23
New Moon
Nov 29
First Quarter
Dec 6
Full
Dec 14
Last Quarter
Dec 21
New

Hourly Weather History & Observations

Time (CST) Temp. Windchill Dew Point Humidity Pressure Visibility Wind Dir Wind Speed Gust Speed Precip Events Conditions
12:14 AM 46.4 °F 42.4 °F 44.6 °F 93% 29.52 in 4.0 mi South 8.1 mph - N/A   Overcast
12:34 AM 46.4 °F 41.5 °F 46.4 °F 100% 29.51 in 5.0 mi South 10.4 mph - N/A   Overcast
12:54 AM 48.2 °F - 46.4 °F 93% 29.50 in 5.0 mi South 9.2 mph - N/A   Overcast
1:13 AM 48.2 °F - 46.4 °F 93% 29.50 in 5.0 mi South 8.1 mph - N/A   Overcast
1:34 AM 51.8 °F - 48.2 °F 88% 29.49 in 7.0 mi South 10.4 mph - N/A   Overcast
1:54 AM 51.8 °F - 48.2 °F 88% 29.49 in 7.0 mi South 9.2 mph - N/A   Overcast
2:14 AM 51.8 °F - 48.2 °F 88% 29.49 in 7.0 mi South 5.8 mph - N/A   Overcast
2:34 AM 51.8 °F - 48.2 °F 88% 29.49 in 7.0 mi South 5.8 mph - N/A   Overcast
2:53 AM 51.8 °F - 48.2 °F 88% 29.48 in 10.0 mi South 6.9 mph - N/A   Overcast
3:14 AM 51.8 °F - 48.2 °F 88% 29.48 in 10.0 mi South 8.1 mph - N/A   Overcast
3:34 AM 51.8 °F - 48.2 °F 88% 29.47 in 10.0 mi South 9.2 mph - N/A   Overcast
3:54 AM 51.8 °F - 48.2 °F 88% 29.47 in 7.0 mi South 8.1 mph - N/A   Overcast
4:14 AM 51.8 °F - 48.2 °F 88% 29.47 in 7.0 mi South 8.1 mph - N/A   Overcast
4:34 AM 51.8 °F - 48.2 °F 88% 29.46 in 7.0 mi South 6.9 mph - N/A   Overcast
4:54 AM 51.8 °F - 48.2 °F 88% 29.46 in 10.0 mi South 4.6 mph - N/A   Overcast
5:14 AM 51.8 °F - 48.2 °F 88% 29.46 in 7.0 mi South 8.1 mph - N/A   Overcast
5:34 AM 51.8 °F - 48.2 °F 88% 29.46 in 7.0 mi SSE 8.1 mph - N/A   Overcast
5:54 AM 51.8 °F - 48.2 °F 88% 29.45 in 7.0 mi SSE 8.1 mph - N/A   Overcast
6:13 AM 51.8 °F - 48.2 °F 88% 29.45 in 7.0 mi SSE 9.2 mph - N/A   Overcast
6:34 AM 50.0 °F - 48.2 °F 94% 29.47 in 7.0 mi South 5.8 mph - N/A   Overcast
6:53 AM 50.0 °F - 48.2 °F 94% 29.48 in 5.0 mi South 4.6 mph - N/A   Overcast
7:14 AM 48.2 °F - 48.2 °F 100% 29.48 in 3.0 mi South 3.5 mph - N/A   Overcast
7:34 AM 48.2 °F - 48.2 °F 100% 29.48 in 2.0 mi South 5.8 mph - N/A   Drizzle
7:54 AM 48.2 °F - 48.2 °F 100% 29.48 in 1.5 mi South 5.8 mph - N/A Rain Light Rain
8:14 AM 48.2 °F - 46.4 °F 93% 29.48 in 0.8 mi South 5.8 mph - N/A   Heavy Drizzle
8:34 AM 48.2 °F - 48.2 °F 100% 29.47 in 1.0 mi South 5.8 mph - N/A   Drizzle
8:54 AM 48.2 °F - 48.2 °F 100% 29.47 in 1.0 mi South 5.8 mph - N/A   Drizzle
9:13 AM 48.2 °F - 48.2 °F 100% 29.47 in 0.8 mi SSE 5.8 mph - N/A Rain Light Rain
9:34 AM 48.2 °F - 48.2 °F 100% 29.46 in 1.0 mi South 5.8 mph - N/A   Drizzle
9:54 AM 48.2 °F - 48.2 °F 100% 29.45 in 1.0 mi South 5.8 mph - N/A   Light Drizzle
10:14 AM 50.0 °F - 48.2 °F 94% 29.44 in 0.8 mi South 5.8 mph - N/A   Overcast
10:34 AM 50.0 °F - 48.2 °F 94% 29.44 in 0.8 mi South 4.6 mph - N/A   Overcast
10:54 AM 50.0 °F - 48.2 °F 94% 29.44 in 0.5 mi South 4.6 mph - N/A Fog Fog
11:14 AM 50.0 °F - 48.2 °F 94% 29.43 in 0.5 mi SSW 4.6 mph - N/A Fog Fog
11:34 AM 50.0 °F - 48.2 °F 94% 29.43 in 0.8 mi South 3.5 mph - N/A Rain Light Rain
11:53 AM 50.0 °F - 48.2 °F 94% 29.42 in 0.5 mi Calm Calm - N/A   Drizzle
12:14 PM 50.0 °F - 48.2 °F 94% 29.41 in 1.0 mi Calm Calm - N/A   Heavy Drizzle
12:34 PM 48.2 °F - 48.2 °F 100% 29.41 in 1.8 mi NW 4.6 mph - N/A   Light Drizzle
12:54 PM 48.2 °F - 48.2 °F 100% 29.40 in 3.0 mi WNW 4.6 mph - N/A   Overcast
1:14 PM 48.2 °F - 48.2 °F 100% 29.39 in 2.0 mi NW 4.6 mph - N/A   Overcast
1:34 PM 48.2 °F - 48.2 °F 100% 29.38 in 2.0 mi Calm Calm - N/A   Overcast
1:54 PM 48.2 °F - 46.4 °F 93% 29.38 in 2.0 mi West 9.2 mph - N/A   Overcast
2:13 PM 46.4 °F 40.7 °F 46.4 °F 100% 29.38 in 3.0 mi WNW 12.7 mph - N/A   Overcast
2:34 PM 44.6 °F 38.4 °F 42.8 °F 93% 29.37 in 7.0 mi WNW 12.7 mph 16.1 mph N/A   Overcast
2:54 PM 44.6 °F 39.7 °F 42.8 °F 93% 29.38 in 10.0 mi WNW 9.2 mph - N/A   Overcast
3:14 PM 44.6 °F 38.8 °F 39.2 °F 81% 29.38 in 10.0 mi WNW 11.5 mph - N/A   Overcast
3:34 PM 42.8 °F 35.8 °F 39.2 °F 87% 29.38 in 10.0 mi WNW 13.8 mph 19.6 mph N/A   Overcast
3:54 PM 42.8 °F 38.0 °F 39.2 °F 87% 29.39 in 10.0 mi NW 8.1 mph - N/A   Overcast
4:14 PM 42.8 °F 38.6 °F 39.2 °F 87% 29.39 in 10.0 mi WNW 6.9 mph - N/A   Overcast
4:33 PM 42.8 °F 40.1 °F 39.2 °F 87% 29.40 in 10.0 mi NW 4.6 mph - N/A   Overcast
4:54 PM 41.0 °F 36.4 °F 37.4 °F 87% 29.40 in 10.0 mi WNW 6.9 mph - N/A   Overcast
5:14 PM 39.2 °F 33.0 °F 37.4 °F 93% 29.40 in 10.0 mi NW 9.2 mph - N/A   Overcast
5:34 PM 39.2 °F 32.0 °F 37.4 °F 93% 29.40 in 10.0 mi WNW 11.5 mph - N/A   Overcast
5:54 PM 39.2 °F 34.2 °F 37.4 °F 93% 29.40 in 10.0 mi West 6.9 mph - N/A   Overcast
6:14 PM 39.2 °F 33.6 °F 37.4 °F 93% 29.40 in 10.0 mi WNW 8.1 mph - N/A   Overcast
6:34 PM 39.2 °F 33.6 °F 37.4 °F 93% 29.40 in 10.0 mi WNW 8.1 mph - N/A   Overcast
6:54 PM 39.2 °F 31.6 °F 37.4 °F 93% 29.39 in 10.0 mi WNW 12.7 mph 16.1 mph N/A   Overcast
7:13 PM 39.2 °F 31.2 °F 35.6 °F 87% 29.39 in 10.0 mi WNW 13.8 mph 19.6 mph N/A   Overcast
7:34 PM 39.2 °F 31.6 °F 35.6 °F 87% 29.38 in 10.0 mi WNW 12.7 mph 18.4 mph N/A   Overcast
7:54 PM 37.4 °F 29.3 °F 35.6 °F 93% 29.38 in 10.0 mi WNW 12.7 mph - N/A   Overcast
8:14 PM 37.4 °F 29.3 °F 35.6 °F 93% 29.37 in 10.0 mi WNW 12.7 mph - N/A Rain Rain
8:34 PM 37.4 °F 29.3 °F 35.6 °F 93% 29.37 in 10.0 mi WNW 12.7 mph 19.6 mph N/A Rain Light Rain
8:54 PM 37.4 °F 28.2 °F 33.8 °F 87% 29.37 in 10.0 mi WNW 16.1 mph 19.6 mph N/A   Light Drizzle
9:14 PM 35.6 °F 28.0 °F 33.8 °F 93% 29.36 in 10.0 mi WNW 10.4 mph 20.7 mph N/A   Drizzle
9:34 PM 35.6 °F 28.0 °F 33.8 °F 93% 29.36 in 7.0 mi WNW 10.4 mph 18.4 mph N/A Rain Light Rain
9:53 PM 35.6 °F 27.1 °F 32.0 °F 87% 29.36 in 5.0 mi WNW 12.7 mph 21.9 mph N/A Rain Light Rain
10:14 PM 33.8 °F 23.9 °F 30.2 °F 87% 29.36 in 3.0 mi WNW 15.0 mph 23.0 mph N/A Snow Light Snow
10:34 PM 33.8 °F 24.3 °F 30.2 °F 87% 29.35 in 4.0 mi WNW 13.8 mph 19.6 mph N/A Snow Light Snow
10:54 PM 33.8 °F 23.2 °F 30.2 °F 87% 29.35 in 4.0 mi WNW 17.3 mph 20.7 mph N/A Snow Light Snow
11:14 PM 33.8 °F 24.3 °F 30.2 °F 87% 29.35 in 4.0 mi WNW 13.8 mph 23.0 mph N/A Snow Light Snow
11:34 PM 32.0 °F 21.2 °F 28.4 °F 87% 29.34 in 5.0 mi WNW 16.1 mph 20.7 mph N/A Snow Light Snow
11:54 PM 32.0 °F 22.1 °F 28.4 °F 87% 29.34 in 7.0 mi WNW 13.8 mph 19.6 mph N/A   Overcast